Regional Weather Roundup
Issued by NWS

Home | Current Version | Previous Version | Text Only | Print | Product List | Glossary Off
Versions: 1 2 3 4 5 6 7 8 9 10 11 12 13 14 15 16 17 18 19 20 21 22 23 24 25 26 27 28 29 30 31 32 33 34 35 36 37 38 39 40 41 42 43 44 45 46 47 48 49 50

229
ASUS43 KOAX 271610
RWRNE

WEATHER ROUNDUP FOR NEBRASKA
NATIONAL WEATHER SERVICE OMAHA NE
1100 AM CDT FRI MAY 27 2016

NOTES: SATELLITE DATA IS BEING USED TO AUGMENT CLOUD COVER ABOVE
       12000 FEET.
       "FAIR" INDICATES FEW OR NO CLOUDS BELOW 12,000 FEET WITH NO
       SIGNIFICANT WEATHER AND/OR OBSTRUCTIONS TO VISIBILITY.

  * THESE STATIONS DO NOT REPORT WEATHER SUCH AS RAIN...SNOW OR FOG.

NEZ001>004-019>022-054>056-271700-
NEBRASKA PANHANDLE

CITY           SKY/WX    TMP DP  RH WIND       PRES   REMARKS
SCOTTSBLUFF    CLOUDY    58  44  60 N7        29.87S
ALLIANCE       RAIN      51  50  96 E7        29.87S FOG
CHADRON        CLOUDY    61  45  55 NW3       29.87R
KIMBALL        DRIZZLE   51  48  89 N13       29.89S
SIDNEY         CLOUDY    52  49  89 NE13      29.85S
$$

NEZ057>060-069>072-079>082-271700-
SOUTHWEST NEBRASKA

CITY           SKY/WX    TMP DP  RH WIND       PRES   REMARKS
NORTH PLATTE   CLOUDY    61  54  77 NE10      29.79F
IMPERIAL       CLOUDY    57  53  86 NE12      29.78S
LEXINGTON      CLOUDY    60  55  83 E7        29.78R
MCCOOK         CLOUDY    59  54  83 NE10      29.76S
OGALLALA       CLOUDY    58  52  80 NE10      29.81S
$$

NEZ005>010-023>029-035>040-094-271700-
NORTH CENTRAL NEBRASKA

CITY           SKY/WX    TMP DP  RH WIND       PRES   REMARKS
VALENTINE      CLOUDY    57  53  86 W6        29.85R
AINSWORTH      CLOUDY    59  54  84 NW8       29.83S
BROKEN BOW     CLOUDY    66  56  70 NW10      29.75F
O`NEILL        PTSUNNY   67  57  70 W5        29.78S
ORD            CLOUDY    70  54  56 NW6       29.74F
THEDFORD       CLOUDY    60  54  80 N8        29.83F
$$

NEZ041-046>049-061>064-073>077-083>087-271700-
SOUTH CENTRAL NEBRASKA

CITY           SKY/WX    TMP DP  RH WIND       PRES   REMARKS
GRAND ISLAND   LGT RAIN  63  57  81 SE5       29.79R
AURORA         LGT RAIN  64  60  90 SE8       29.80R
HASTINGS       LGT RAIN  61  59  93 E7        29.78F
HEBRON         CLOUDY    65  58  77 CALM      29.78S
HOLDREGE       CLOUDY    58  56  92 E8        29.78S
KEARNEY *      CLOUDY    61  55  82 E12       29.80R
YORK           LGT RAIN  63  59  88 SE7       29.80R
$$

NEZ011>018-030>034-042>045-271700-
NORTHEAST NEBRASKA

CITY           SKY/WX    TMP DP  RH WIND       PRES   REMARKS
NORFOLK        MOSUNNY   68  57  68 SE6       29.75F
ALBION         MOSUNNY   69  55  61 SE5       29.76S
BLAIR          MOSUNNY   70  60  72 E7        29.75F
FREMONT        MOSUNNY   71  59  66 E6        29.75F
TEKAMAH        PTSUNNY   70  57  63 VRB3      29.74F
WAYNE          MOSUNNY   69  59  70 CALM      29.76F
$$

NEZ050>053-065>068-078-088>093-271700-
SOUTHEAST NEBRASKA

CITY           SKY/WX    TMP DP  RH WIND       PRES   REMARKS
LINCOLN        PTSUNNY   69  58  67 VRB6      29.76F
OMAHA EPPLEY   PTSUNNY   70  60  70 CALM      29.73F
BEATRICE       CLOUDY    66  60  80 CALM      29.77R
FALLS CITY     CLOUDY    68  63  84 S8        29.76R
NEBRASKA CITY  PTSUNNY   67  62  83 SE5       29.77R
PLATTSMOUTH    CLOUDY    70  63  80 E6        29.74F
$$

NEZ044-045-051>053-067-271700-
OMAHA AREA

CITY           SKY/WX    TMP DP  RH WIND       PRES   REMARKS
OMAHA EPPLEY   PTSUNNY   70  60  70 CALM      29.73F
BLAIR          MOSUNNY   70  60  72 E7        29.75F
FREMONT        MOSUNNY   71  59  66 E6        29.75F
MILLARD        SUNNY     71  60  68 CALM      29.74F
OFFUTT AFB     SUNNY     70  62  75 VRB5      29.73F
PLATTSMOUTH    CLOUDY    70  63  80 E6        29.74F
WAHOO          FAIR      70  60  72 SE5       29.75F
$$




USA.gov is the U.S. government's official web portal to all federal, state and local government web resources and services.